TimePDT,TemperatureF,Dew PointF,Humidity,Sea Level PressureIn,VisibilityMPH,Wind Direction,Wind SpeedMPH,Gust SpeedMPH,PrecipitationIn,Events,Conditions,WindDirDegrees,DateUTC
12:15 AM,57.2,51.8,82,29.97,10.0,Calm,Calm,-,N/A,,Overcast,0,2011-10-02 07:15:00
12:35 AM,57.2,51.8,82,29.97,10.0,Calm,Calm,-,N/A,,Overcast,0,2011-10-02 07:35:00
12:55 AM,55.4,51.8,88,29.97,10.0,Calm,Calm,-,N/A,,Mostly Cloudy,0,2011-10-02 07:55:00
1:15 AM,55.4,51.8,88,29.97,10.0,South,3.5,-,N/A,,Overcast,180,2011-10-02 08:15:00
1:35 AM,57.2,51.8,82,29.97,10.0,SW,4.6,-,N/A,,Overcast,220,2011-10-02 08:35:00
1:55 AM,57.2,51.8,82,29.98,10.0,SSW,8.1,-,N/A,,Overcast,200,2011-10-02 08:55:00
2:15 AM,57.2,51.8,82,29.98,10.0,SSE,6.9,-,N/A,,Overcast,150,2011-10-02 09:15:00
2:35 AM,57.2,51.8,82,29.98,10.0,South,8.1,-,N/A,,Overcast,170,2011-10-02 09:35:00
2:55 AM,57.2,51.8,82,29.97,10.0,SSE,5.8,-,N/A,,Overcast,160,2011-10-02 09:55:00
3:15 AM,57.2,51.8,82,29.97,10.0,South,6.9,-,N/A,,Overcast,180,2011-10-02 10:15:00
3:35 AM,57.2,51.8,82,29.98,10.0,South,8.1,-,N/A,,Overcast,170,2011-10-02 10:35:00
3:55 AM,57.2,51.8,82,29.98,10.0,SSE,6.9,-,N/A,,Overcast,160,2011-10-02 10:55:00
4:15 AM,55.4,51.8,88,29.97,10.0,South,5.8,-,N/A,,Overcast,170,2011-10-02 11:15:00
4:35 AM,57.2,51.8,82,29.98,10.0,South,6.9,-,N/A,,Overcast,180,2011-10-02 11:35:00
4:55 AM,55.4,51.8,88,29.98,10.0,South,4.6,-,N/A,,Overcast,170,2011-10-02 11:55:00
5:15 AM,55.4,51.8,88,29.97,10.0,SSE,3.5,-,N/A,,Overcast,160,2011-10-02 12:15:00
5:35 AM,55.4,51.8,88,29.97,10.0,SE,4.6,-,N/A,,Overcast,140,2011-10-02 12:35:00
5:55 AM,55.4,51.8,88,29.97,10.0,SSE,8.1,-,N/A,,Overcast,150,2011-10-02 12:55:00
6:15 AM,55.4,50.0,82,29.97,10.0,South,5.8,-,N/A,,Overcast,180,2011-10-02 13:15:00
6:35 AM,55.4,50.0,82,29.97,10.0,South,3.5,-,N/A,,Overcast,170,2011-10-02 13:35:00
6:55 AM,55.4,50.0,82,29.97,10.0,SSE,5.8,-,N/A,,Overcast,160,2011-10-02 13:55:00
7:15 AM,55.4,50.0,82,29.98,10.0,South,4.6,-,N/A,,Overcast,170,2011-10-02 14:15:00
7:35 AM,53.6,48.2,82,29.97,10.0,SE,4.6,-,N/A,,Mostly Cloudy,140,2011-10-02 14:35:00
7:55 AM,55.4,50.0,82,29.97,10.0,SSE,4.6,-,N/A,,Mostly Cloudy,160,2011-10-02 14:55:00
8:15 AM,55.4,50.0,82,29.98,10.0,South,5.8,-,N/A,,Mostly Cloudy,170,2011-10-02 15:15:00
8:35 AM,55.4,51.8,88,29.98,10.0,SE,8.1,-,N/A,,Mostly Cloudy,140,2011-10-02 15:35:00
8:55 AM,55.4,51.8,88,29.98,10.0,SE,6.9,-,N/A,,Mostly Cloudy,140,2011-10-02 15:55:00
9:15 AM,57.2,51.8,82,29.97,10.0,SE,5.8,-,N/A,,Mostly Cloudy,140,2011-10-02 16:15:00
9:35 AM,57.2,51.8,82,29.98,10.0,South,5.8,-,N/A,,Scattered Clouds,170,2011-10-02 16:35:00
11:15 AM,60.8,53.6,77,29.96,10.0,South,9.2,-,N/A,,Unknown,180,2011-10-02 18:15:00
11:55 AM,62.6,53.6,72,29.95,10.0,South,9.2,-,N/A,,Mostly Cloudy,170,2011-10-02 18:55:00
12:15 PM,64.4,51.8,64,29.95,10.0,South,15.0,-,N/A,,Overcast,180,2011-10-02 19:15:00
12:35 PM,64.4,51.8,64,29.94,10.0,SSE,11.5,18.4,N/A,,Overcast,160,2011-10-02 19:35:00
12:55 PM,64.4,51.8,64,29.93,10.0,South,12.7,-,N/A,,Overcast,170,2011-10-02 19:55:00
1:15 PM,64.4,51.8,64,29.95,10.0,South,11.5,-,N/A,,Overcast,190,2011-10-02 20:15:00
1:35 PM,64.4,51.8,64,29.94,10.0,South,8.1,-,N/A,,Mostly Cloudy,190,2011-10-02 20:35:00
1:55 PM,62.6,51.8,68,29.94,10.0,WSW,10.4,-,N/A,,Overcast,240,2011-10-02 20:55:00
2:15 PM,62.6,51.8,68,29.93,10.0,SW,10.4,19.6,N/A,,Overcast,220,2011-10-02 21:15:00
2:35 PM,62.6,51.8,68,29.93,10.0,SSW,9.2,-,N/A,,Overcast,210,2011-10-02 21:35:00
2:55 PM,60.8,51.8,72,29.92,10.0,South,12.7,-,N/A,,Overcast,170,2011-10-02 21:55:00
3:15 PM,60.8,51.8,72,29.92,10.0,South,10.4,-,N/A,,Overcast,170,2011-10-02 22:15:00
3:35 PM,60.8,51.8,72,29.93,10.0,South,16.1,19.6,N/A,,Overcast,180,2011-10-02 22:35:00
3:55 PM,60.8,50.0,68,29.92,10.0,South,11.5,-,N/A,,Overcast,180,2011-10-02 22:55:00
4:15 PM,60.8,50.0,68,29.92,10.0,South,9.2,-,N/A,,Overcast,190,2011-10-02 23:15:00
4:35 PM,60.8,50.0,68,29.91,10.0,SSE,9.2,-,N/A,,Overcast,160,2011-10-02 23:35:00
4:55 PM,59.0,50.0,72,29.90,10.0,SSE,12.7,-,0.01,,Overcast,150,2011-10-02 23:55:00
5:15 PM,57.2,51.8,82,29.91,10.0,SSE,9.2,-,N/A,,Overcast,150,2011-10-03 00:15:00
5:35 PM,57.2,51.8,82,29.91,10.0,South,8.1,-,0.01,,Overcast,170,2011-10-03 00:35:00
5:55 PM,57.2,51.8,82,29.91,10.0,South,6.9,-,0.02,,Overcast,170,2011-10-03 00:55:00
6:15 PM,57.2,50.0,77,29.91,10.0,South,13.8,-,0.01,,Overcast,180,2011-10-03 01:15:00
6:35 PM,57.2,50.0,77,29.90,10.0,South,8.1,-,0.02,,Overcast,170,2011-10-03 01:35:00
6:55 PM,57.2,51.8,82,29.90,10.0,South,5.8,-,0.03,,Overcast,180,2011-10-03 01:55:00
7:15 PM,55.4,51.8,88,29.89,10.0,SSE,5.8,-,0.01,,Overcast,160,2011-10-03 02:15:00
7:35 PM,55.4,51.8,88,29.89,10.0,SE,8.1,-,0.02,,Overcast,140,2011-10-03 02:35:00
7:55 PM,55.4,51.8,88,29.89,10.0,SE,9.2,-,0.02,,Overcast,140,2011-10-03 02:55:00
8:15 PM,55.4,50.0,82,29.89,10.0,SSE,8.1,-,0.01,,Overcast,150,2011-10-03 03:15:00
8:35 PM,55.4,50.0,82,29.87,10.0,SE,12.7,-,0.01,,Overcast,130,2011-10-03 03:35:00
8:55 PM,55.4,50.0,82,29.87,10.0,SE,11.5,-,0.01,,Overcast,140,2011-10-03 03:55:00
9:15 PM,55.4,48.2,77,29.87,10.0,SE,16.1,19.6,N/A,,Overcast,140,2011-10-03 04:15:00
9:35 PM,55.4,48.2,77,29.87,10.0,SE,12.7,23.0,N/A,,Overcast,140,2011-10-03 04:35:00
9:55 PM,55.4,48.2,77,29.87,10.0,SE,13.8,-,N/A,,Overcast,140,2011-10-03 04:55:00
10:15 PM,55.4,48.2,77,29.86,10.0,SE,13.8,18.4,N/A,,Overcast,130,2011-10-03 05:15:00
10:35 PM,55.4,48.2,77,29.87,10.0,SSE,15.0,-,N/A,,Overcast,150,2011-10-03 05:35:00
10:55 PM,55.4,48.2,77,29.86,10.0,SSE,11.5,-,N/A,,Overcast,150,2011-10-03 05:55:00
11:15 PM,55.4,48.2,77,29.86,10.0,SE,11.5,-,N/A,,Overcast,140,2011-10-03 06:15:00
11:35 PM,55.4,48.2,77,29.86,10.0,SE,11.5,-,0.01,,Overcast,130,2011-10-03 06:35:00
11:55 PM,55.4,48.2,77,29.85,10.0,SE,12.7,-,0.01,,Overcast,130,2011-10-03 06:55:00